Index of /20260507/WXO-DD/model_caps/3km/00/010
Name Last modified Size Description
Parent Directory -
20260507T00Z_MSC_CAPS_AbsoluteVorticity_IsbL-0250_RLatLon0.03_PT010H.grib2 2026-05-07 06:08 1.1M
20260507T00Z_MSC_CAPS_AbsoluteVorticity_IsbL-0500_RLatLon0.03_PT010H.grib2 2026-05-07 06:08 1.1M
20260507T00Z_MSC_CAPS_AbsoluteVorticity_IsbL-0700_RLatLon0.03_PT010H.grib2 2026-05-07 06:08 1.3M
20260507T00Z_MSC_CAPS_AbsoluteVorticity_IsbL-0850_RLatLon0.03_PT010H.grib2 2026-05-07 06:08 1.6M
20260507T00Z_MSC_CAPS_AbsoluteVorticity_IsbL-1000_RLatLon0.03_PT010H.grib2 2026-05-07 06:08 1.3M
20260507T00Z_MSC_CAPS_AirDensity_AGL-120m_RLatLon0.03_PT010H.grib2 2026-05-07 06:08 1.4M
20260507T00Z_MSC_CAPS_AirDensity_AGL-40m_RLatLon0.03_PT010H.grib2 2026-05-07 06:08 1.4M
20260507T00Z_MSC_CAPS_AirDensity_AGL-80m_RLatLon0.03_PT010H.grib2 2026-05-07 06:08 1.4M
20260507T00Z_MSC_CAPS_AirTemp_AGL-120m_RLatLon0.03_PT010H.grib2 2026-05-07 06:08 1.4M
20260507T00Z_MSC_CAPS_AirTemp_AGL-2m_RLatLon0.03_PT010H.grib2 2026-05-07 06:08 1.8M
20260507T00Z_MSC_CAPS_AirTemp_AGL-40m_RLatLon0.03_PT010H.grib2 2026-05-07 06:08 1.5M
20260507T00Z_MSC_CAPS_AirTemp_AGL-80m_RLatLon0.03_PT010H.grib2 2026-05-07 06:08 1.4M
20260507T00Z_MSC_CAPS_AirTemp_IsbL-0050_RLatLon0.03_PT010H.grib2 2026-05-07 06:08 684K
20260507T00Z_MSC_CAPS_AirTemp_IsbL-0100_RLatLon0.03_PT010H.grib2 2026-05-07 06:08 940K
20260507T00Z_MSC_CAPS_AirTemp_IsbL-0150_RLatLon0.03_PT010H.grib2 2026-05-07 06:08 749K
20260507T00Z_MSC_CAPS_AirTemp_IsbL-0175_RLatLon0.03_PT010H.grib2 2026-05-07 06:08 779K
20260507T00Z_MSC_CAPS_AirTemp_IsbL-0200_RLatLon0.03_PT010H.grib2 2026-05-07 06:08 800K
20260507T00Z_MSC_CAPS_AirTemp_IsbL-0225_RLatLon0.03_PT010H.grib2 2026-05-07 06:08 801K
20260507T00Z_MSC_CAPS_AirTemp_IsbL-0250_RLatLon0.03_PT010H.grib2 2026-05-07 06:08 1.0M
20260507T00Z_MSC_CAPS_AirTemp_IsbL-0275_RLatLon0.03_PT010H.grib2 2026-05-07 06:08 1.0M
20260507T00Z_MSC_CAPS_AirTemp_IsbL-0300_RLatLon0.03_PT010H.grib2 2026-05-07 06:08 1.0M
20260507T00Z_MSC_CAPS_AirTemp_IsbL-0350_RLatLon0.03_PT010H.grib2 2026-05-07 06:08 753K
20260507T00Z_MSC_CAPS_AirTemp_IsbL-0400_RLatLon0.03_PT010H.grib2 2026-05-07 06:08 754K
20260507T00Z_MSC_CAPS_AirTemp_IsbL-0450_RLatLon0.03_PT010H.grib2 2026-05-07 06:08 770K
20260507T00Z_MSC_CAPS_AirTemp_IsbL-0500_RLatLon0.03_PT010H.grib2 2026-05-07 06:08 785K
20260507T00Z_MSC_CAPS_AirTemp_IsbL-0550_RLatLon0.03_PT010H.grib2 2026-05-07 06:08 796K
20260507T00Z_MSC_CAPS_AirTemp_IsbL-0600_RLatLon0.03_PT010H.grib2 2026-05-07 06:08 813K
20260507T00Z_MSC_CAPS_AirTemp_IsbL-0650_RLatLon0.03_PT010H.grib2 2026-05-07 06:08 841K
20260507T00Z_MSC_CAPS_AirTemp_IsbL-0700_RLatLon0.03_PT010H.grib2 2026-05-07 06:08 876K
20260507T00Z_MSC_CAPS_AirTemp_IsbL-0750_RLatLon0.03_PT010H.grib2 2026-05-07 06:08 913K
20260507T00Z_MSC_CAPS_AirTemp_IsbL-0800_RLatLon0.03_PT010H.grib2 2026-05-07 06:08 936K
20260507T00Z_MSC_CAPS_AirTemp_IsbL-0850_RLatLon0.03_PT010H.grib2 2026-05-07 06:08 1.1M
20260507T00Z_MSC_CAPS_AirTemp_IsbL-0875_RLatLon0.03_PT010H.grib2 2026-05-07 06:08 1.1M
20260507T00Z_MSC_CAPS_AirTemp_IsbL-0900_RLatLon0.03_PT010H.grib2 2026-05-07 06:08 1.1M
20260507T00Z_MSC_CAPS_AirTemp_IsbL-0925_RLatLon0.03_PT010H.grib2 2026-05-07 06:08 1.2M
20260507T00Z_MSC_CAPS_AirTemp_IsbL-0950_RLatLon0.03_PT010H.grib2 2026-05-07 06:08 1.1M
20260507T00Z_MSC_CAPS_AirTemp_IsbL-0970_RLatLon0.03_PT010H.grib2 2026-05-07 06:08 1.1M
20260507T00Z_MSC_CAPS_AirTemp_IsbL-0985_RLatLon0.03_PT010H.grib2 2026-05-07 06:08 1.1M
20260507T00Z_MSC_CAPS_AirTemp_IsbL-1000_RLatLon0.03_PT010H.grib2 2026-05-07 06:08 1.1M
20260507T00Z_MSC_CAPS_AirTemp_IsbL-1015_RLatLon0.03_PT010H.grib2 2026-05-07 06:08 1.1M
20260507T00Z_MSC_CAPS_Albedo_Sfc_RLatLon0.03_PT010H.grib2 2026-05-07 06:08 2.7M
20260507T00Z_MSC_CAPS_CAPE_Sfc_RLatLon0.03_PT010H.grib2 2026-05-07 06:08 240K
20260507T00Z_MSC_CAPS_CloudWater_EAtm_RLatLon0.03_PT010H.grib2 2026-05-07 06:08 1.5M
20260507T00Z_MSC_CAPS_ConvectivePrecip-Accum_Sfc_RLatLon0.03_PT010H.grib2 2026-05-07 06:08 2.7M
20260507T00Z_MSC_CAPS_DewPointDepression_AGL-120m_RLatLon0.03_PT010H.grib2 2026-05-07 06:08 2.1M
20260507T00Z_MSC_CAPS_DewPointDepression_AGL-2m_RLatLon0.03_PT010H.grib2 2026-05-07 06:08 2.2M
20260507T00Z_MSC_CAPS_DewPointDepression_AGL-40m_RLatLon0.03_PT010H.grib2 2026-05-07 06:08 2.1M
20260507T00Z_MSC_CAPS_DewPointDepression_AGL-80m_RLatLon0.03_PT010H.grib2 2026-05-07 06:08 2.1M
20260507T00Z_MSC_CAPS_DewPointDepression_IsbL-0050_RLatLon0.03_PT010H.grib2 2026-05-07 06:08 4.5K
20260507T00Z_MSC_CAPS_DewPointDepression_IsbL-0100_RLatLon0.03_PT010H.grib2 2026-05-07 06:08 56K
20260507T00Z_MSC_CAPS_DewPointDepression_IsbL-0150_RLatLon0.03_PT010H.grib2 2026-05-07 06:08 61K
20260507T00Z_MSC_CAPS_DewPointDepression_IsbL-0175_RLatLon0.03_PT010H.grib2 2026-05-07 06:08 198K
20260507T00Z_MSC_CAPS_DewPointDepression_IsbL-0200_RLatLon0.03_PT010H.grib2 2026-05-07 06:08 395K
20260507T00Z_MSC_CAPS_DewPointDepression_IsbL-0225_RLatLon0.03_PT010H.grib2 2026-05-07 06:08 584K
20260507T00Z_MSC_CAPS_DewPointDepression_IsbL-0250_RLatLon0.03_PT010H.grib2 2026-05-07 06:08 817K
20260507T00Z_MSC_CAPS_DewPointDepression_IsbL-0275_RLatLon0.03_PT010H.grib2 2026-05-07 06:08 959K
20260507T00Z_MSC_CAPS_DewPointDepression_IsbL-0300_RLatLon0.03_PT010H.grib2 2026-05-07 06:08 1.0M
20260507T00Z_MSC_CAPS_DewPointDepression_IsbL-0350_RLatLon0.03_PT010H.grib2 2026-05-07 06:08 1.0M
20260507T00Z_MSC_CAPS_DewPointDepression_IsbL-0400_RLatLon0.03_PT010H.grib2 2026-05-07 06:08 1.1M
20260507T00Z_MSC_CAPS_DewPointDepression_IsbL-0450_RLatLon0.03_PT010H.grib2 2026-05-07 06:08 1.1M
20260507T00Z_MSC_CAPS_DewPointDepression_IsbL-0500_RLatLon0.03_PT010H.grib2 2026-05-07 06:08 1.1M
20260507T00Z_MSC_CAPS_DewPointDepression_IsbL-0550_RLatLon0.03_PT010H.grib2 2026-05-07 06:08 1.2M
20260507T00Z_MSC_CAPS_DewPointDepression_IsbL-0600_RLatLon0.03_PT010H.grib2 2026-05-07 06:08 1.2M
20260507T00Z_MSC_CAPS_DewPointDepression_IsbL-0650_RLatLon0.03_PT010H.grib2 2026-05-07 06:08 1.2M
20260507T00Z_MSC_CAPS_DewPointDepression_IsbL-0700_RLatLon0.03_PT010H.grib2 2026-05-07 06:08 1.3M
20260507T00Z_MSC_CAPS_DewPointDepression_IsbL-0750_RLatLon0.03_PT010H.grib2 2026-05-07 06:08 1.3M
20260507T00Z_MSC_CAPS_DewPointDepression_IsbL-0800_RLatLon0.03_PT010H.grib2 2026-05-07 06:08 1.3M
20260507T00Z_MSC_CAPS_DewPointDepression_IsbL-0850_RLatLon0.03_PT010H.grib2 2026-05-07 06:08 1.4M
20260507T00Z_MSC_CAPS_DewPointDepression_IsbL-0875_RLatLon0.03_PT010H.grib2 2026-05-07 06:08 1.4M
20260507T00Z_MSC_CAPS_DewPointDepression_IsbL-0900_RLatLon0.03_PT010H.grib2 2026-05-07 06:08 1.4M
20260507T00Z_MSC_CAPS_DewPointDepression_IsbL-0925_RLatLon0.03_PT010H.grib2 2026-05-07 06:08 1.4M
20260507T00Z_MSC_CAPS_DewPointDepression_IsbL-0950_RLatLon0.03_PT010H.grib2 2026-05-07 06:08 1.4M
20260507T00Z_MSC_CAPS_DewPointDepression_IsbL-0970_RLatLon0.03_PT010H.grib2 2026-05-07 06:08 1.4M
20260507T00Z_MSC_CAPS_DewPointDepression_IsbL-0985_RLatLon0.03_PT010H.grib2 2026-05-07 06:08 1.4M
20260507T00Z_MSC_CAPS_DewPointDepression_IsbL-1000_RLatLon0.03_PT010H.grib2 2026-05-07 06:08 1.4M
20260507T00Z_MSC_CAPS_DewPointDepression_IsbL-1015_RLatLon0.03_PT010H.grib2 2026-05-07 06:08 1.4M
20260507T00Z_MSC_CAPS_DewPoint_AGL-120m_RLatLon0.03_PT010H.grib2 2026-05-07 06:08 3.7M
20260507T00Z_MSC_CAPS_DewPoint_AGL-2m_RLatLon0.03_PT010H.grib2 2026-05-07 06:08 1.8M
20260507T00Z_MSC_CAPS_DewPoint_AGL-40m_RLatLon0.03_PT010H.grib2 2026-05-07 06:08 3.7M
20260507T00Z_MSC_CAPS_DewPoint_AGL-80m_RLatLon0.03_PT010H.grib2 2026-05-07 06:08 3.7M
20260507T00Z_MSC_CAPS_DownwardLongwaveRadiationFlux-Accum_Sfc_RLatLon0.03_PT010H.grib2 2026-05-07 06:08 2.4M
20260507T00Z_MSC_CAPS_DownwardShortwaveRadiationFlux-Accum_NTAtm_RLatLon0.03_PT010H.grib2 2026-05-07 06:08 456K
20260507T00Z_MSC_CAPS_DownwardShortwaveRadiationFlux-Accum_Sfc_RLatLon0.03_PT010H.grib2 2026-05-07 06:08 2.3M
20260507T00Z_MSC_CAPS_FreezingRain-Accum_Sfc_RLatLon0.03_PT010H.grib2 2026-05-07 06:08 328K
20260507T00Z_MSC_CAPS_GeopotentialHeight_IsbL-0050_RLatLon0.03_PT010H.grib2 2026-05-07 06:08 823K
20260507T00Z_MSC_CAPS_GeopotentialHeight_IsbL-0100_RLatLon0.03_PT010H.grib2 2026-05-07 06:08 807K
20260507T00Z_MSC_CAPS_GeopotentialHeight_IsbL-0150_RLatLon0.03_PT010H.grib2 2026-05-07 06:08 599K
20260507T00Z_MSC_CAPS_GeopotentialHeight_IsbL-0175_RLatLon0.03_PT010H.grib2 2026-05-07 06:08 718K
20260507T00Z_MSC_CAPS_GeopotentialHeight_IsbL-0200_RLatLon0.03_PT010H.grib2 2026-05-07 06:08 738K
20260507T00Z_MSC_CAPS_GeopotentialHeight_IsbL-0225_RLatLon0.03_PT010H.grib2 2026-05-07 06:08 753K
20260507T00Z_MSC_CAPS_GeopotentialHeight_IsbL-0250_RLatLon0.03_PT010H.grib2 2026-05-07 06:08 764K
20260507T00Z_MSC_CAPS_GeopotentialHeight_IsbL-0275_RLatLon0.03_PT010H.grib2 2026-05-07 06:08 770K
20260507T00Z_MSC_CAPS_GeopotentialHeight_IsbL-0300_RLatLon0.03_PT010H.grib2 2026-05-07 06:08 774K
20260507T00Z_MSC_CAPS_GeopotentialHeight_IsbL-0350_RLatLon0.03_PT010H.grib2 2026-05-07 06:08 773K
20260507T00Z_MSC_CAPS_GeopotentialHeight_IsbL-0400_RLatLon0.03_PT010H.grib2 2026-05-07 06:08 772K
20260507T00Z_MSC_CAPS_GeopotentialHeight_IsbL-0450_RLatLon0.03_PT010H.grib2 2026-05-07 06:08 764K
20260507T00Z_MSC_CAPS_GeopotentialHeight_IsbL-0500_RLatLon0.03_PT010H.grib2 2026-05-07 06:08 757K
20260507T00Z_MSC_CAPS_GeopotentialHeight_IsbL-0550_RLatLon0.03_PT010H.grib2 2026-05-07 06:08 637K
20260507T00Z_MSC_CAPS_GeopotentialHeight_IsbL-0600_RLatLon0.03_PT010H.grib2 2026-05-07 06:08 633K
20260507T00Z_MSC_CAPS_GeopotentialHeight_IsbL-0650_RLatLon0.03_PT010H.grib2 2026-05-07 06:08 804K
20260507T00Z_MSC_CAPS_GeopotentialHeight_IsbL-0700_RLatLon0.03_PT010H.grib2 2026-05-07 06:08 804K
20260507T00Z_MSC_CAPS_GeopotentialHeight_IsbL-0750_RLatLon0.03_PT010H.grib2 2026-05-07 06:08 882K
20260507T00Z_MSC_CAPS_GeopotentialHeight_IsbL-0800_RLatLon0.03_PT010H.grib2 2026-05-07 06:08 890K
20260507T00Z_MSC_CAPS_GeopotentialHeight_IsbL-0850_RLatLon0.03_PT010H.grib2 2026-05-07 06:08 894K
20260507T00Z_MSC_CAPS_GeopotentialHeight_IsbL-0875_RLatLon0.03_PT010H.grib2 2026-05-07 06:08 898K
20260507T00Z_MSC_CAPS_GeopotentialHeight_IsbL-0900_RLatLon0.03_PT010H.grib2 2026-05-07 06:08 906K
20260507T00Z_MSC_CAPS_GeopotentialHeight_IsbL-0925_RLatLon0.03_PT010H.grib2 2026-05-07 06:08 916K
20260507T00Z_MSC_CAPS_GeopotentialHeight_IsbL-0950_RLatLon0.03_PT010H.grib2 2026-05-07 06:08 929K
20260507T00Z_MSC_CAPS_GeopotentialHeight_IsbL-0970_RLatLon0.03_PT010H.grib2 2026-05-07 06:08 939K
20260507T00Z_MSC_CAPS_GeopotentialHeight_IsbL-0985_RLatLon0.03_PT010H.grib2 2026-05-07 06:08 948K
20260507T00Z_MSC_CAPS_GeopotentialHeight_IsbL-1000_RLatLon0.03_PT010H.grib2 2026-05-07 06:08 958K
20260507T00Z_MSC_CAPS_GeopotentialHeight_IsbL-1015_RLatLon0.03_PT010H.grib2 2026-05-07 06:08 970K
20260507T00Z_MSC_CAPS_GeopotentialHeight_Sfc_RLatLon0.03_PT010H.grib2 2026-05-07 06:08 1.0M
20260507T00Z_MSC_CAPS_IcePellets-Accum_Sfc_RLatLon0.03_PT010H.grib2 2026-05-07 06:08 6.8K
20260507T00Z_MSC_CAPS_LatentHeatNetFlux_Sfc_RLatLon0.03_PT010H.grib2 2026-05-07 06:08 1.4M
20260507T00Z_MSC_CAPS_LiftedIndex-MU-VT_IsbL-0500_RLatLon0.03_PT010H.grib2 2026-05-07 06:08 3.3M
20260507T00Z_MSC_CAPS_MixedLayerThickness_Sfc_RLatLon0.03_PT010H.nc 2026-05-07 06:12 16M
20260507T00Z_MSC_CAPS_NetLongwaveRadiationFlux-Accum_Sfc_RLatLon0.03_PT010H.grib2 2026-05-07 06:08 3.1M
20260507T00Z_MSC_CAPS_NetShortwaveRadiationFlux-Accum_Sfc_RLatLon0.03_PT010H.grib2 2026-05-07 06:08 2.4M
20260507T00Z_MSC_CAPS_PlanetaryBoundaryLayerHeight_Sfc_RLatLon0.03_PT010H.grib2 2026-05-07 06:08 2.9M
20260507T00Z_MSC_CAPS_Precip-Accum_Sfc_RLatLon0.03_PT010H.grib2 2026-05-07 06:08 3.6M
20260507T00Z_MSC_CAPS_PrecipRate_Sfc_RLatLon0.03_PT010H.grib2 2026-05-07 06:08 507K
20260507T00Z_MSC_CAPS_PrecipType-Instant_Sfc_RLatLon0.03_PT010H.grib2 2026-05-07 06:08 1.9M
20260507T00Z_MSC_CAPS_Pressure_MSL_RLatLon0.03_PT010H.grib2 2026-05-07 06:08 764K
20260507T00Z_MSC_CAPS_Pressure_Sfc_RLatLon0.03_PT010H.grib2 2026-05-07 06:08 1.2M
20260507T00Z_MSC_CAPS_RadiativeTemp_Sfc_RLatLon0.03_PT010H.grib2 2026-05-07 06:08 2.1M
20260507T00Z_MSC_CAPS_Rain-Accum_Sfc_RLatLon0.03_PT010H.grib2 2026-05-07 06:08 1.6M
20260507T00Z_MSC_CAPS_RelativeHumidity_AGL-120m_RLatLon0.03_PT010H.grib2 2026-05-07 06:08 2.8M
20260507T00Z_MSC_CAPS_RelativeHumidity_AGL-2m_RLatLon0.03_PT010H.grib2 2026-05-07 06:08 3.0M
20260507T00Z_MSC_CAPS_RelativeHumidity_AGL-40m_RLatLon0.03_PT010H.grib2 2026-05-07 06:08 2.9M
20260507T00Z_MSC_CAPS_RelativeHumidity_AGL-80m_RLatLon0.03_PT010H.grib2 2026-05-07 06:08 2.8M
20260507T00Z_MSC_CAPS_RelativeHumidity_IsbL-0050_RLatLon0.03_PT010H.grib2 2026-05-07 06:08 706K
20260507T00Z_MSC_CAPS_RelativeHumidity_IsbL-0100_RLatLon0.03_PT010H.grib2 2026-05-07 06:08 830K
20260507T00Z_MSC_CAPS_RelativeHumidity_IsbL-0150_RLatLon0.03_PT010H.grib2 2026-05-07 06:08 567K
20260507T00Z_MSC_CAPS_RelativeHumidity_IsbL-0175_RLatLon0.03_PT010H.grib2 2026-05-07 06:08 463K
20260507T00Z_MSC_CAPS_RelativeHumidity_IsbL-0200_RLatLon0.03_PT010H.grib2 2026-05-07 06:08 654K
20260507T00Z_MSC_CAPS_RelativeHumidity_IsbL-0225_RLatLon0.03_PT010H.grib2 2026-05-07 06:08 890K
20260507T00Z_MSC_CAPS_RelativeHumidity_IsbL-0250_RLatLon0.03_PT010H.grib2 2026-05-07 06:08 1.1M
20260507T00Z_MSC_CAPS_RelativeHumidity_IsbL-0275_RLatLon0.03_PT010H.grib2 2026-05-07 06:08 1.4M
20260507T00Z_MSC_CAPS_RelativeHumidity_IsbL-0300_RLatLon0.03_PT010H.grib2 2026-05-07 06:08 1.7M
20260507T00Z_MSC_CAPS_RelativeHumidity_IsbL-0350_RLatLon0.03_PT010H.grib2 2026-05-07 06:08 1.9M
20260507T00Z_MSC_CAPS_RelativeHumidity_IsbL-0400_RLatLon0.03_PT010H.grib2 2026-05-07 06:08 2.1M
20260507T00Z_MSC_CAPS_RelativeHumidity_IsbL-0450_RLatLon0.03_PT010H.grib2 2026-05-07 06:08 2.0M
20260507T00Z_MSC_CAPS_RelativeHumidity_IsbL-0500_RLatLon0.03_PT010H.grib2 2026-05-07 06:08 2.1M
20260507T00Z_MSC_CAPS_RelativeHumidity_IsbL-0550_RLatLon0.03_PT010H.grib2 2026-05-07 06:08 2.1M
20260507T00Z_MSC_CAPS_RelativeHumidity_IsbL-0600_RLatLon0.03_PT010H.grib2 2026-05-07 06:08 2.0M
20260507T00Z_MSC_CAPS_RelativeHumidity_IsbL-0650_RLatLon0.03_PT010H.grib2 2026-05-07 06:08 2.2M
20260507T00Z_MSC_CAPS_RelativeHumidity_IsbL-0700_RLatLon0.03_PT010H.grib2 2026-05-07 06:08 2.3M
20260507T00Z_MSC_CAPS_RelativeHumidity_IsbL-0750_RLatLon0.03_PT010H.grib2 2026-05-07 06:08 2.3M
20260507T00Z_MSC_CAPS_RelativeHumidity_IsbL-0800_RLatLon0.03_PT010H.grib2 2026-05-07 06:08 2.4M
20260507T00Z_MSC_CAPS_RelativeHumidity_IsbL-0850_RLatLon0.03_PT010H.grib2 2026-05-07 06:08 2.6M
20260507T00Z_MSC_CAPS_RelativeHumidity_IsbL-0875_RLatLon0.03_PT010H.grib2 2026-05-07 06:08 2.7M
20260507T00Z_MSC_CAPS_RelativeHumidity_IsbL-0900_RLatLon0.03_PT010H.grib2 2026-05-07 06:08 2.7M
20260507T00Z_MSC_CAPS_RelativeHumidity_IsbL-0925_RLatLon0.03_PT010H.grib2 2026-05-07 06:08 2.8M
20260507T00Z_MSC_CAPS_RelativeHumidity_IsbL-0950_RLatLon0.03_PT010H.grib2 2026-05-07 06:08 2.8M
20260507T00Z_MSC_CAPS_RelativeHumidity_IsbL-0970_RLatLon0.03_PT010H.grib2 2026-05-07 06:08 2.9M
20260507T00Z_MSC_CAPS_RelativeHumidity_IsbL-0985_RLatLon0.03_PT010H.grib2 2026-05-07 06:08 2.9M
20260507T00Z_MSC_CAPS_RelativeHumidity_IsbL-1000_RLatLon0.03_PT010H.grib2 2026-05-07 06:08 3.0M
20260507T00Z_MSC_CAPS_RelativeHumidity_IsbL-1015_RLatLon0.03_PT010H.grib2 2026-05-07 06:08 3.0M
20260507T00Z_MSC_CAPS_Runoff-Accum_Sfc_RLatLon0.03_PT010H.grib2 2026-05-07 06:08 255K
20260507T00Z_MSC_CAPS_SeaIceAreaFraction_Sfc_RLatLon0.03_PT010H.nc 2026-05-07 06:12 15M
20260507T00Z_MSC_CAPS_SeaIceCompressiveStrength_Sfc_RLatLon0.03_PT010H.nc 2026-05-07 06:12 15M
20260507T00Z_MSC_CAPS_SeaIceDivergence_Sfc_RLatLon0.03_PT010H.nc 2026-05-07 06:12 15M
20260507T00Z_MSC_CAPS_SeaIceInternalPressure_Sfc_RLatLon0.03_PT010H.nc 2026-05-07 06:12 15M
20260507T00Z_MSC_CAPS_SeaIceShear_Sfc_RLatLon0.03_PT010H.nc 2026-05-07 06:12 15M
20260507T00Z_MSC_CAPS_SeaIceSnowTemp_Sfc_RLatLon0.03_PT010H.nc 2026-05-07 06:12 14M
20260507T00Z_MSC_CAPS_SeaIceSnowVolume_Sfc_RLatLon0.03_PT010H.nc 2026-05-07 06:12 15M
20260507T00Z_MSC_CAPS_SeaIceVelocityX_Sfc_RLatLon0.03_PT010H.nc 2026-05-07 06:12 15M
20260507T00Z_MSC_CAPS_SeaIceVelocityY_Sfc_RLatLon0.03_PT010H.nc 2026-05-07 06:12 15M
20260507T00Z_MSC_CAPS_SeaIceVolume_Sfc_RLatLon0.03_PT010H.nc 2026-05-07 06:12 15M
20260507T00Z_MSC_CAPS_SeaSurfaceHeight_Sfc_RLatLon0.03_PT010H.nc 2026-05-07 06:12 16M
20260507T00Z_MSC_CAPS_SeaWaterSalinity_DBS-0.5m_RLatLon0.03_PT010H.nc 2026-05-07 06:12 16M
20260507T00Z_MSC_CAPS_SeaWaterSalinity_DBS-all_RLatLon0.03_PT010H.nc 2026-05-07 06:12 107M
20260507T00Z_MSC_CAPS_SeaWaterTemp_DBS-0.5m_RLatLon0.03_PT010H.nc 2026-05-07 06:12 15M
20260507T00Z_MSC_CAPS_SeaWaterTemp_DBS-all_RLatLon0.03_PT010H.nc 2026-05-07 06:12 88M
20260507T00Z_MSC_CAPS_SeaWaterVelocityX_DBS-0.5m_RLatLon0.03_PT010H.nc 2026-05-07 06:12 17M
20260507T00Z_MSC_CAPS_SeaWaterVelocityX_DBS-all_RLatLon0.03_PT010H.nc 2026-05-07 06:12 210M
20260507T00Z_MSC_CAPS_SeaWaterVelocityY_DBS-0.5m_RLatLon0.03_PT010H.nc 2026-05-07 06:12 17M
20260507T00Z_MSC_CAPS_SeaWaterVelocityY_DBS-all_RLatLon0.03_PT010H.nc 2026-05-07 06:12 216M
20260507T00Z_MSC_CAPS_SensibleHeatNetFlux_Sfc_RLatLon0.03_PT010H.grib2 2026-05-07 06:08 2.0M
20260507T00Z_MSC_CAPS_ShowalterIndex_IsbL-0500_RLatLon0.03_PT010H.grib2 2026-05-07 06:08 4.3M
20260507T00Z_MSC_CAPS_Snow-Accum_Sfc_RLatLon0.03_PT010H.grib2 2026-05-07 06:08 2.9M
20260507T00Z_MSC_CAPS_SnowDensity_Sfc_RLatLon0.03_PT010H.grib2 2026-05-07 06:08 1.2M
20260507T00Z_MSC_CAPS_SnowDepthWaterEquivalent_Sfc_RLatLon0.03_PT010H.grib2 2026-05-07 06:08 641K
20260507T00Z_MSC_CAPS_SnowDepth_Sfc_RLatLon0.03_PT010H.grib2 2026-05-07 06:08 1.1M
20260507T00Z_MSC_CAPS_SoilTemp_DBS-0to10cm_RLatLon0.03_PT010H.grib2 2026-05-07 06:08 1.4M
20260507T00Z_MSC_CAPS_SoilTemp_Sfc_RLatLon0.03_PT010H.grib2 2026-05-07 06:08 1.9M
20260507T00Z_MSC_CAPS_SoilVolumetricIceContent_Sfc_RLatLon0.03_PT010H.grib2 2026-05-07 06:08 1.3M
20260507T00Z_MSC_CAPS_SoilVolumetricWaterContent_DBS-0to10cm_RLatLon0.03_PT010H.grib2 2026-05-07 06:08 1.3M
20260507T00Z_MSC_CAPS_SoilVolumetricWaterContent_DBS-0to1cm_RLatLon0.03_PT010H.grib2 2026-05-07 06:08 1.7M
20260507T00Z_MSC_CAPS_SpecificHumidity_AGL-120m_RLatLon0.03_PT010H.grib2 2026-05-07 06:08 1.4M
20260507T00Z_MSC_CAPS_SpecificHumidity_AGL-2m_RLatLon0.03_PT010H.grib2 2026-05-07 06:08 1.8M
20260507T00Z_MSC_CAPS_SpecificHumidity_AGL-40m_RLatLon0.03_PT010H.grib2 2026-05-07 06:08 1.5M
20260507T00Z_MSC_CAPS_SpecificHumidity_AGL-80m_RLatLon0.03_PT010H.grib2 2026-05-07 06:08 1.5M
20260507T00Z_MSC_CAPS_SpecificHumidity_IsbL-0050_RLatLon0.03_PT010H.grib2 2026-05-07 06:08 880K
20260507T00Z_MSC_CAPS_SpecificHumidity_IsbL-0100_RLatLon0.03_PT010H.grib2 2026-05-07 06:08 1.1M
20260507T00Z_MSC_CAPS_SpecificHumidity_IsbL-0150_RLatLon0.03_PT010H.grib2 2026-05-07 06:08 1.0M
20260507T00Z_MSC_CAPS_SpecificHumidity_IsbL-0175_RLatLon0.03_PT010H.grib2 2026-05-07 06:08 968K
20260507T00Z_MSC_CAPS_SpecificHumidity_IsbL-0200_RLatLon0.03_PT010H.grib2 2026-05-07 06:08 860K
20260507T00Z_MSC_CAPS_SpecificHumidity_IsbL-0225_RLatLon0.03_PT010H.grib2 2026-05-07 06:08 832K
20260507T00Z_MSC_CAPS_SpecificHumidity_IsbL-0250_RLatLon0.03_PT010H.grib2 2026-05-07 06:08 1.0M
20260507T00Z_MSC_CAPS_SpecificHumidity_IsbL-0275_RLatLon0.03_PT010H.grib2 2026-05-07 06:08 1.1M
20260507T00Z_MSC_CAPS_SpecificHumidity_IsbL-0300_RLatLon0.03_PT010H.grib2 2026-05-07 06:08 1.0M
20260507T00Z_MSC_CAPS_SpecificHumidity_IsbL-0350_RLatLon0.03_PT010H.grib2 2026-05-07 06:08 1.0M
20260507T00Z_MSC_CAPS_SpecificHumidity_IsbL-0400_RLatLon0.03_PT010H.grib2 2026-05-07 06:08 1.0M
20260507T00Z_MSC_CAPS_SpecificHumidity_IsbL-0450_RLatLon0.03_PT010H.grib2 2026-05-07 06:08 1.1M
20260507T00Z_MSC_CAPS_SpecificHumidity_IsbL-0500_RLatLon0.03_PT010H.grib2 2026-05-07 06:08 1.0M
20260507T00Z_MSC_CAPS_SpecificHumidity_IsbL-0550_RLatLon0.03_PT010H.grib2 2026-05-07 06:08 1.2M
20260507T00Z_MSC_CAPS_SpecificHumidity_IsbL-0600_RLatLon0.03_PT010H.grib2 2026-05-07 06:08 1.3M
20260507T00Z_MSC_CAPS_SpecificHumidity_IsbL-0650_RLatLon0.03_PT010H.grib2 2026-05-07 06:08 1.5M
20260507T00Z_MSC_CAPS_SpecificHumidity_IsbL-0700_RLatLon0.03_PT010H.grib2 2026-05-07 06:08 1.6M
20260507T00Z_MSC_CAPS_SpecificHumidity_IsbL-0750_RLatLon0.03_PT010H.grib2 2026-05-07 06:08 1.4M
20260507T00Z_MSC_CAPS_SpecificHumidity_IsbL-0800_RLatLon0.03_PT010H.grib2 2026-05-07 06:08 1.6M
20260507T00Z_MSC_CAPS_SpecificHumidity_IsbL-0850_RLatLon0.03_PT010H.grib2 2026-05-07 06:08 1.8M
20260507T00Z_MSC_CAPS_SpecificHumidity_IsbL-0875_RLatLon0.03_PT010H.grib2 2026-05-07 06:08 1.8M
20260507T00Z_MSC_CAPS_SpecificHumidity_IsbL-0900_RLatLon0.03_PT010H.grib2 2026-05-07 06:08 1.9M
20260507T00Z_MSC_CAPS_SpecificHumidity_IsbL-0925_RLatLon0.03_PT010H.grib2 2026-05-07 06:08 1.6M
20260507T00Z_MSC_CAPS_SpecificHumidity_IsbL-0950_RLatLon0.03_PT010H.grib2 2026-05-07 06:08 1.6M
20260507T00Z_MSC_CAPS_SpecificHumidity_IsbL-0970_RLatLon0.03_PT010H.grib2 2026-05-07 06:08 1.7M
20260507T00Z_MSC_CAPS_SpecificHumidity_IsbL-0985_RLatLon0.03_PT010H.grib2 2026-05-07 06:08 1.7M
20260507T00Z_MSC_CAPS_SpecificHumidity_IsbL-1000_RLatLon0.03_PT010H.grib2 2026-05-07 06:08 1.8M
20260507T00Z_MSC_CAPS_SpecificHumidity_IsbL-1015_RLatLon0.03_PT010H.grib2 2026-05-07 06:08 1.8M
20260507T00Z_MSC_CAPS_SpecificHumidity_Sfc_RLatLon0.03_PT010H.grib2 2026-05-07 06:08 2.1M
20260507T00Z_MSC_CAPS_StormRelativeHelicity_Sfc_RLatLon0.03_PT010H.grib2 2026-05-07 06:08 3.1M
20260507T00Z_MSC_CAPS_Thickness_IsbL-1000to0500_RLatLon0.03_PT010H.grib2 2026-05-07 06:08 409K
20260507T00Z_MSC_CAPS_TotalCloudCover_Sfc_RLatLon0.03_PT010H.grib2 2026-05-07 06:08 3.7M
20260507T00Z_MSC_CAPS_TurboclineDepth_Sfc_RLatLon0.03_PT010H.nc 2026-05-07 06:12 16M
20260507T00Z_MSC_CAPS_UpwardLongwaveRadiationFlux_NTAtm_RLatLon0.03_PT010H.grib2 2026-05-07 06:08 3.0M
20260507T00Z_MSC_CAPS_UpwardShortwaveRadiationFlux_NTAtm_RLatLon0.03_PT010H.grib2 2026-05-07 06:08 2.0M
20260507T00Z_MSC_CAPS_VerticalVelocity_IsbL-0250_RLatLon0.03_PT010H.grib2 2026-05-07 06:08 920K
20260507T00Z_MSC_CAPS_VerticalVelocity_IsbL-0500_RLatLon0.03_PT010H.grib2 2026-05-07 06:08 1.1M
20260507T00Z_MSC_CAPS_VerticalVelocity_IsbL-0700_RLatLon0.03_PT010H.grib2 2026-05-07 06:08 960K
20260507T00Z_MSC_CAPS_VerticalVelocity_IsbL-0850_RLatLon0.03_PT010H.grib2 2026-05-07 06:08 1.1M
20260507T00Z_MSC_CAPS_VerticalVelocity_IsbL-1000_RLatLon0.03_PT010H.grib2 2026-05-07 06:08 1.3M
20260507T00Z_MSC_CAPS_WindDir_AGL-10m_RLatLon0.03_PT010H.grib2 2026-05-07 06:08 2.5M
20260507T00Z_MSC_CAPS_WindDir_AGL-120m_RLatLon0.03_PT010H.grib2 2026-05-07 06:08 1.3M
20260507T00Z_MSC_CAPS_WindDir_AGL-40m_RLatLon0.03_PT010H.grib2 2026-05-07 06:08 1.4M
20260507T00Z_MSC_CAPS_WindDir_AGL-80m_RLatLon0.03_PT010H.grib2 2026-05-07 06:08 1.3M
20260507T00Z_MSC_CAPS_WindDir_IsbL-0050_RLatLon0.03_PT010H.grib2 2026-05-07 06:08 1.1M
20260507T00Z_MSC_CAPS_WindDir_IsbL-0100_RLatLon0.03_PT010H.grib2 2026-05-07 06:08 1.1M
20260507T00Z_MSC_CAPS_WindDir_IsbL-0150_RLatLon0.03_PT010H.grib2 2026-05-07 06:08 1.1M
20260507T00Z_MSC_CAPS_WindDir_IsbL-0175_RLatLon0.03_PT010H.grib2 2026-05-07 06:08 1.1M
20260507T00Z_MSC_CAPS_WindDir_IsbL-0200_RLatLon0.03_PT010H.grib2 2026-05-07 06:08 1.1M
20260507T00Z_MSC_CAPS_WindDir_IsbL-0225_RLatLon0.03_PT010H.grib2 2026-05-07 06:08 1.1M
20260507T00Z_MSC_CAPS_WindDir_IsbL-0250_RLatLon0.03_PT010H.grib2 2026-05-07 06:08 1.1M
20260507T00Z_MSC_CAPS_WindDir_IsbL-0275_RLatLon0.03_PT010H.grib2 2026-05-07 06:08 1.1M
20260507T00Z_MSC_CAPS_WindDir_IsbL-0300_RLatLon0.03_PT010H.grib2 2026-05-07 06:08 1.1M
20260507T00Z_MSC_CAPS_WindDir_IsbL-0350_RLatLon0.03_PT010H.grib2 2026-05-07 06:08 1.1M
20260507T00Z_MSC_CAPS_WindDir_IsbL-0400_RLatLon0.03_PT010H.grib2 2026-05-07 06:08 1.2M
20260507T00Z_MSC_CAPS_WindDir_IsbL-0450_RLatLon0.03_PT010H.grib2 2026-05-07 06:08 1.2M
20260507T00Z_MSC_CAPS_WindDir_IsbL-0500_RLatLon0.03_PT010H.grib2 2026-05-07 06:08 1.1M
20260507T00Z_MSC_CAPS_WindDir_IsbL-0550_RLatLon0.03_PT010H.grib2 2026-05-07 06:08 1.2M
20260507T00Z_MSC_CAPS_WindDir_IsbL-0600_RLatLon0.03_PT010H.grib2 2026-05-07 06:08 1.3M
20260507T00Z_MSC_CAPS_WindDir_IsbL-0650_RLatLon0.03_PT010H.grib2 2026-05-07 06:08 1.4M
20260507T00Z_MSC_CAPS_WindDir_IsbL-0700_RLatLon0.03_PT010H.grib2 2026-05-07 06:08 1.5M
20260507T00Z_MSC_CAPS_WindDir_IsbL-0750_RLatLon0.03_PT010H.grib2 2026-05-07 06:08 1.6M
20260507T00Z_MSC_CAPS_WindDir_IsbL-0800_RLatLon0.03_PT010H.grib2 2026-05-07 06:08 1.8M
20260507T00Z_MSC_CAPS_WindDir_IsbL-0850_RLatLon0.03_PT010H.grib2 2026-05-07 06:08 1.9M
20260507T00Z_MSC_CAPS_WindDir_IsbL-0875_RLatLon0.03_PT010H.grib2 2026-05-07 06:08 2.0M
20260507T00Z_MSC_CAPS_WindDir_IsbL-0900_RLatLon0.03_PT010H.grib2 2026-05-07 06:08 2.0M
20260507T00Z_MSC_CAPS_WindDir_IsbL-0925_RLatLon0.03_PT010H.grib2 2026-05-07 06:08 2.1M
20260507T00Z_MSC_CAPS_WindDir_IsbL-0950_RLatLon0.03_PT010H.grib2 2026-05-07 06:08 2.1M
20260507T00Z_MSC_CAPS_WindDir_IsbL-0970_RLatLon0.03_PT010H.grib2 2026-05-07 06:08 2.2M
20260507T00Z_MSC_CAPS_WindDir_IsbL-0985_RLatLon0.03_PT010H.grib2 2026-05-07 06:08 2.3M
20260507T00Z_MSC_CAPS_WindDir_IsbL-1000_RLatLon0.03_PT010H.grib2 2026-05-07 06:08 2.4M
20260507T00Z_MSC_CAPS_WindDir_IsbL-1015_RLatLon0.03_PT010H.grib2 2026-05-07 06:08 2.5M
20260507T00Z_MSC_CAPS_WindGust-Max_AGL-10m_RLatLon0.03_PT010H.grib2 2026-05-07 06:08 2.5M
20260507T00Z_MSC_CAPS_WindGust-Min_AGL-10m_RLatLon0.03_PT010H.grib2 2026-05-07 06:08 2.3M
20260507T00Z_MSC_CAPS_WindGust_AGL-10m_RLatLon0.03_PT010H.grib2 2026-05-07 06:08 2.4M
20260507T00Z_MSC_CAPS_WindSpeed_AGL-10m_RLatLon0.03_PT010H.grib2 2026-05-07 06:08 2.1M
20260507T00Z_MSC_CAPS_WindSpeed_AGL-120m_RLatLon0.03_PT010H.grib2 2026-05-07 06:08 1.2M
20260507T00Z_MSC_CAPS_WindSpeed_AGL-40m_RLatLon0.03_PT010H.grib2 2026-05-07 06:08 1.2M
20260507T00Z_MSC_CAPS_WindSpeed_AGL-80m_RLatLon0.03_PT010H.grib2 2026-05-07 06:08 1.1M
20260507T00Z_MSC_CAPS_WindSpeed_IsbL-0050_RLatLon0.03_PT010H.grib2 2026-05-07 06:08 940K
20260507T00Z_MSC_CAPS_WindSpeed_IsbL-0100_RLatLon0.03_PT010H.grib2 2026-05-07 06:08 1.3M
20260507T00Z_MSC_CAPS_WindSpeed_IsbL-0150_RLatLon0.03_PT010H.grib2 2026-05-07 06:08 1.0M
20260507T00Z_MSC_CAPS_WindSpeed_IsbL-0175_RLatLon0.03_PT010H.grib2 2026-05-07 06:08 1.2M
20260507T00Z_MSC_CAPS_WindSpeed_IsbL-0200_RLatLon0.03_PT010H.grib2 2026-05-07 06:08 1.3M
20260507T00Z_MSC_CAPS_WindSpeed_IsbL-0225_RLatLon0.03_PT010H.grib2 2026-05-07 06:08 1.3M
20260507T00Z_MSC_CAPS_WindSpeed_IsbL-0250_RLatLon0.03_PT010H.grib2 2026-05-07 06:08 1.0M
20260507T00Z_MSC_CAPS_WindSpeed_IsbL-0275_RLatLon0.03_PT010H.grib2 2026-05-07 06:08 1.0M
20260507T00Z_MSC_CAPS_WindSpeed_IsbL-0300_RLatLon0.03_PT010H.grib2 2026-05-07 06:08 1.0M
20260507T00Z_MSC_CAPS_WindSpeed_IsbL-0350_RLatLon0.03_PT010H.grib2 2026-05-07 06:08 1.0M
20260507T00Z_MSC_CAPS_WindSpeed_IsbL-0400_RLatLon0.03_PT010H.grib2 2026-05-07 06:08 1.0M
20260507T00Z_MSC_CAPS_WindSpeed_IsbL-0450_RLatLon0.03_PT010H.grib2 2026-05-07 06:08 1.3M
20260507T00Z_MSC_CAPS_WindSpeed_IsbL-0500_RLatLon0.03_PT010H.grib2 2026-05-07 06:08 1.3M
20260507T00Z_MSC_CAPS_WindSpeed_IsbL-0550_RLatLon0.03_PT010H.grib2 2026-05-07 06:08 1.4M
20260507T00Z_MSC_CAPS_WindSpeed_IsbL-0600_RLatLon0.03_PT010H.grib2 2026-05-07 06:08 1.4M
20260507T00Z_MSC_CAPS_WindSpeed_IsbL-0650_RLatLon0.03_PT010H.grib2 2026-05-07 06:08 1.3M
20260507T00Z_MSC_CAPS_WindSpeed_IsbL-0700_RLatLon0.03_PT010H.grib2 2026-05-07 06:08 1.5M
20260507T00Z_MSC_CAPS_WindSpeed_IsbL-0750_RLatLon0.03_PT010H.grib2 2026-05-07 06:08 1.6M
20260507T00Z_MSC_CAPS_WindSpeed_IsbL-0800_RLatLon0.03_PT010H.grib2 2026-05-07 06:08 1.7M
20260507T00Z_MSC_CAPS_WindSpeed_IsbL-0850_RLatLon0.03_PT010H.grib2 2026-05-07 06:08 1.8M
20260507T00Z_MSC_CAPS_WindSpeed_IsbL-0875_RLatLon0.03_PT010H.grib2 2026-05-07 06:08 1.8M
20260507T00Z_MSC_CAPS_WindSpeed_IsbL-0900_RLatLon0.03_PT010H.grib2 2026-05-07 06:08 1.8M
20260507T00Z_MSC_CAPS_WindSpeed_IsbL-0925_RLatLon0.03_PT010H.grib2 2026-05-07 06:08 1.9M
20260507T00Z_MSC_CAPS_WindSpeed_IsbL-0950_RLatLon0.03_PT010H.grib2 2026-05-07 06:08 1.9M
20260507T00Z_MSC_CAPS_WindSpeed_IsbL-0970_RLatLon0.03_PT010H.grib2 2026-05-07 06:08 2.0M
20260507T00Z_MSC_CAPS_WindSpeed_IsbL-0985_RLatLon0.03_PT010H.grib2 2026-05-07 06:08 2.0M
20260507T00Z_MSC_CAPS_WindSpeed_IsbL-1000_RLatLon0.03_PT010H.grib2 2026-05-07 06:08 2.0M
20260507T00Z_MSC_CAPS_WindSpeed_IsbL-1015_RLatLon0.03_PT010H.grib2 2026-05-07 06:08 2.1M
20260507T00Z_MSC_CAPS_WindU_AGL-10m_RLatLon0.03_PT010H.grib2 2026-05-07 06:08 1.9M
20260507T00Z_MSC_CAPS_WindU_AGL-120m_RLatLon0.03_PT010H.grib2 2026-05-07 06:08 902K
20260507T00Z_MSC_CAPS_WindU_AGL-40m_RLatLon0.03_PT010H.grib2 2026-05-07 06:08 1.2M
20260507T00Z_MSC_CAPS_WindU_AGL-80m_RLatLon0.03_PT010H.grib2 2026-05-07 06:08 1.2M
20260507T00Z_MSC_CAPS_WindU_IsbL-0050_RLatLon0.03_PT010H.grib2 2026-05-07 06:08 937K
20260507T00Z_MSC_CAPS_WindU_IsbL-0100_RLatLon0.03_PT010H.grib2 2026-05-07 06:08 953K
20260507T00Z_MSC_CAPS_WindU_IsbL-0150_RLatLon0.03_PT010H.grib2 2026-05-07 06:08 923K
20260507T00Z_MSC_CAPS_WindU_IsbL-0175_RLatLon0.03_PT010H.grib2 2026-05-07 06:08 735K
20260507T00Z_MSC_CAPS_WindU_IsbL-0200_RLatLon0.03_PT010H.grib2 2026-05-07 06:08 759K
20260507T00Z_MSC_CAPS_WindU_IsbL-0225_RLatLon0.03_PT010H.grib2 2026-05-07 06:08 904K
20260507T00Z_MSC_CAPS_WindU_IsbL-0250_RLatLon0.03_PT010H.grib2 2026-05-07 06:08 921K
20260507T00Z_MSC_CAPS_WindU_IsbL-0275_RLatLon0.03_PT010H.grib2 2026-05-07 06:08 714K
20260507T00Z_MSC_CAPS_WindU_IsbL-0300_RLatLon0.03_PT010H.grib2 2026-05-07 06:08 721K
20260507T00Z_MSC_CAPS_WindU_IsbL-0350_RLatLon0.03_PT010H.grib2 2026-05-07 06:08 732K
20260507T00Z_MSC_CAPS_WindU_IsbL-0400_RLatLon0.03_PT010H.grib2 2026-05-07 06:08 953K
20260507T00Z_MSC_CAPS_WindU_IsbL-0450_RLatLon0.03_PT010H.grib2 2026-05-07 06:08 967K
20260507T00Z_MSC_CAPS_WindU_IsbL-0500_RLatLon0.03_PT010H.grib2 2026-05-07 06:08 873K
20260507T00Z_MSC_CAPS_WindU_IsbL-0550_RLatLon0.03_PT010H.grib2 2026-05-07 06:08 905K
20260507T00Z_MSC_CAPS_WindU_IsbL-0600_RLatLon0.03_PT010H.grib2 2026-05-07 06:08 935K
20260507T00Z_MSC_CAPS_WindU_IsbL-0650_RLatLon0.03_PT010H.grib2 2026-05-07 06:08 972K
20260507T00Z_MSC_CAPS_WindU_IsbL-0700_RLatLon0.03_PT010H.grib2 2026-05-07 06:08 1.0M
20260507T00Z_MSC_CAPS_WindU_IsbL-0750_RLatLon0.03_PT010H.grib2 2026-05-07 06:08 1.1M
20260507T00Z_MSC_CAPS_WindU_IsbL-0800_RLatLon0.03_PT010H.grib2 2026-05-07 06:08 1.1M
20260507T00Z_MSC_CAPS_WindU_IsbL-0850_RLatLon0.03_PT010H.grib2 2026-05-07 06:08 1.2M
20260507T00Z_MSC_CAPS_WindU_IsbL-0875_RLatLon0.03_PT010H.grib2 2026-05-07 06:08 1.3M
20260507T00Z_MSC_CAPS_WindU_IsbL-0900_RLatLon0.03_PT010H.grib2 2026-05-07 06:08 1.3M
20260507T00Z_MSC_CAPS_WindU_IsbL-0925_RLatLon0.03_PT010H.grib2 2026-05-07 06:08 1.3M
20260507T00Z_MSC_CAPS_WindU_IsbL-0950_RLatLon0.03_PT010H.grib2 2026-05-07 06:08 1.4M
20260507T00Z_MSC_CAPS_WindU_IsbL-0970_RLatLon0.03_PT010H.grib2 2026-05-07 06:08 1.4M
20260507T00Z_MSC_CAPS_WindU_IsbL-0985_RLatLon0.03_PT010H.grib2 2026-05-07 06:08 1.4M
20260507T00Z_MSC_CAPS_WindU_IsbL-1000_RLatLon0.03_PT010H.grib2 2026-05-07 06:08 1.8M
20260507T00Z_MSC_CAPS_WindU_IsbL-1015_RLatLon0.03_PT010H.grib2 2026-05-07 06:08 1.9M
20260507T00Z_MSC_CAPS_WindV_AGL-10m_RLatLon0.03_PT010H.grib2 2026-05-07 06:08 2.0M
20260507T00Z_MSC_CAPS_WindV_AGL-120m_RLatLon0.03_PT010H.grib2 2026-05-07 06:08 1.2M
20260507T00Z_MSC_CAPS_WindV_AGL-40m_RLatLon0.03_PT010H.grib2 2026-05-07 06:08 1.2M
20260507T00Z_MSC_CAPS_WindV_AGL-80m_RLatLon0.03_PT010H.grib2 2026-05-07 06:08 1.2M
20260507T00Z_MSC_CAPS_WindV_IsbL-0050_RLatLon0.03_PT010H.grib2 2026-05-07 06:08 760K
20260507T00Z_MSC_CAPS_WindV_IsbL-0100_RLatLon0.03_PT010H.grib2 2026-05-07 06:08 779K
20260507T00Z_MSC_CAPS_WindV_IsbL-0150_RLatLon0.03_PT010H.grib2 2026-05-07 06:08 1.0M
20260507T00Z_MSC_CAPS_WindV_IsbL-0175_RLatLon0.03_PT010H.grib2 2026-05-07 06:08 724K
20260507T00Z_MSC_CAPS_WindV_IsbL-0200_RLatLon0.03_PT010H.grib2 2026-05-07 06:08 877K
20260507T00Z_MSC_CAPS_WindV_IsbL-0225_RLatLon0.03_PT010H.grib2 2026-05-07 06:08 896K
20260507T00Z_MSC_CAPS_WindV_IsbL-0250_RLatLon0.03_PT010H.grib2 2026-05-07 06:08 914K
20260507T00Z_MSC_CAPS_WindV_IsbL-0275_RLatLon0.03_PT010H.grib2 2026-05-07 06:08 919K
20260507T00Z_MSC_CAPS_WindV_IsbL-0300_RLatLon0.03_PT010H.grib2 2026-05-07 06:08 927K
20260507T00Z_MSC_CAPS_WindV_IsbL-0350_RLatLon0.03_PT010H.grib2 2026-05-07 06:08 943K
20260507T00Z_MSC_CAPS_WindV_IsbL-0400_RLatLon0.03_PT010H.grib2 2026-05-07 06:08 947K
20260507T00Z_MSC_CAPS_WindV_IsbL-0450_RLatLon0.03_PT010H.grib2 2026-05-07 06:08 961K
20260507T00Z_MSC_CAPS_WindV_IsbL-0500_RLatLon0.03_PT010H.grib2 2026-05-07 06:08 867K
20260507T00Z_MSC_CAPS_WindV_IsbL-0550_RLatLon0.03_PT010H.grib2 2026-05-07 06:08 897K
20260507T00Z_MSC_CAPS_WindV_IsbL-0600_RLatLon0.03_PT010H.grib2 2026-05-07 06:08 928K
20260507T00Z_MSC_CAPS_WindV_IsbL-0650_RLatLon0.03_PT010H.grib2 2026-05-07 06:08 963K
20260507T00Z_MSC_CAPS_WindV_IsbL-0700_RLatLon0.03_PT010H.grib2 2026-05-07 06:08 1.0M
20260507T00Z_MSC_CAPS_WindV_IsbL-0750_RLatLon0.03_PT010H.grib2 2026-05-07 06:08 1.1M
20260507T00Z_MSC_CAPS_WindV_IsbL-0800_RLatLon0.03_PT010H.grib2 2026-05-07 06:08 1.1M
20260507T00Z_MSC_CAPS_WindV_IsbL-0850_RLatLon0.03_PT010H.grib2 2026-05-07 06:08 1.2M
20260507T00Z_MSC_CAPS_WindV_IsbL-0875_RLatLon0.03_PT010H.grib2 2026-05-07 06:08 1.2M
20260507T00Z_MSC_CAPS_WindV_IsbL-0900_RLatLon0.03_PT010H.grib2 2026-05-07 06:08 1.3M
20260507T00Z_MSC_CAPS_WindV_IsbL-0925_RLatLon0.03_PT010H.grib2 2026-05-07 06:08 1.3M
20260507T00Z_MSC_CAPS_WindV_IsbL-0950_RLatLon0.03_PT010H.grib2 2026-05-07 06:08 1.7M
20260507T00Z_MSC_CAPS_WindV_IsbL-0970_RLatLon0.03_PT010H.grib2 2026-05-07 06:08 1.8M
20260507T00Z_MSC_CAPS_WindV_IsbL-0985_RLatLon0.03_PT010H.grib2 2026-05-07 06:08 1.8M
20260507T00Z_MSC_CAPS_WindV_IsbL-1000_RLatLon0.03_PT010H.grib2 2026-05-07 06:08 2.0M
20260507T00Z_MSC_CAPS_WindV_IsbL-1015_RLatLon0.03_PT010H.grib2 2026-05-07 06:08 2.0M